sat.trackr.live / text

‹ back to catalog

STARLINK-1357

NORAD 45565 · 2020-025AL

PAYLOAD ACTIVE UNKNOWN

§ Identity

Operator
Country
US
Launch date
2020-04-22
Launch site
AFETR
Launch vehicle
Mass (kg)
RCS (m²)

Purposes: comms

External: N2YO · Heavens-Above · Gunter

§ Orbital elements

Epoch: 2026-09-15T18:51:50.341248Z

Period
90.93 min
Inclination
53.0364°
Eccentricity
0.0006062
Mean motion
15.83614178 rev/d
Perigee alt
316.2 km
Apogee alt
324.3 km
Semi-major
6,698.4 km
B*
3.7926e-4
RAAN
177.8942°
Arg perigee
87.7268°
Mean anomaly
272.4449°
Rev number
35,592

§ Raw data

STARLINK-13571 45565U 20025AL  26258.78599932  .00085303  00000+0  37926-3 0  99972 45565  53.0364 177.8942 0006062  87.7268 272.4449 15.83614178355928

JSON: /api/v1/satellites/45565 · /tle

For live sub-satellite position, see the globe view (requires WebGL).

§ Visibility from observer

Set your observer location to see the next 7 days of passes ≥ 10°. The values pass through the URL so the page stays shareable.

No JS? Fill the form by hand. The geolocation button needs JavaScript.